STARLINK-33919, 63699

Orbit data source: Space-Track

STARLINK-33919, 63699 is a payload satellite owned by SpaceX/Seattle (US) in LEO that was launched on Mon, 28 Apr 2025 UTC via an FALCON 9 launch vehicle from the Air Force Western Test Range (AFWTR). Payload-class satellites include a variety of spacecraft equipped with specific instruments for various scientific and technological missions. These include communications satellites like Starlink; space stations such as the ISS; scientific satellites like the Hubble; Earth observation satellites from companies like Planet Labs, Umbra, and HawkEye 360; GPS; miniature CubeSats for education and research; and military/defense satellites.

Loading next visibility...
Identifier
63699, 2025-087C
Orbit
LEO
Country
Flag of USUS
Related business
Manufacturer
SpaceX/Seattle
Mission
Operational Commercial Communications
Bus & Motor
STARLINK V2MO, Unknown motor
Mass
575 kg wet, ~530 kg dry
Launch date (UTC)
2025-04-28 (1 year ago)
Launch vehicle
FALCON 9
Launch site
Air Force Western Test Range (AFWTR)
Object type
Payload
Rocket body
Debris
Shape & HBR
Box + 2 Pan, 17.7 m
Radar Cross Section
36.964 m², Large (>1 m²)

Expand to show TLE details & history
Last TLE update: 1 day ago

TLE from 1 day ago
0 STARLINK-33919
1 63699U 25087C   26170.96681306  .00016033  00000-0  55207-3 0  9995
2 63699  53.1587 104.8544 0001459 105.2962 254.8201 15.30212887 64856
Epoch: 2026-06-19T23:12Z
TLE epoch observation values (Epoch: 2026-06-19T23:12:12.648Z)
Latitude
0.00006°
Longitude
-151.38646°
Altitude
476.338 km
Speed
7.629 km/s
True Right ascension
06h 59m 25s
True Declination
0° 00' 00"
Sunlit
Object was in daylight at epoch
Visualization orbit readout
Latitude
Unknown
Longitude
Unknown
Altitude
Unknown
Speed
Unknown
Apparent Right ascension
Unknown
Apparent Declination
Unknown
Sunlit
N/A
Visualization observer readout
Local Sidereal Time
10:18:58
Azimuth
Unknown
Elevation
Unknown
Doppler factor
Unknown
Orbital elements
Apogee altitude
476.433 km
Perigee altitude
474.433 km
Semi-major axis
6,853.57 km
Eccentricity
0.00015
Inclination
53.1587°
RAAN
104.8544°
Arg. of periapsis
105.2962°
True anomaly
254.80397°
Mean anomaly
254.8201°
Eccentric anomaly
254.81203°
Mean motion
3.82532 °/min
Orbital period
94.11 mins
BSTAR
0.00055207
Loading maneuver chart data...
Computing Atmospheric mass density...
Loading historical data...
Loading historical data...
Loading historical data...
Loading historical data...
Loading historical data...
Loading historical data...
Loading historical data...

Documentation

Showing up to 5 results
|